Wind_Speed
6 7 6 7 6 6 6 6 5 4 4 4 4 4 4 3 4 3 4 4 5 4 4 4 4 4 4 4 4 2 2 3 2 3 3 4 5 6 6 6 6 6 7
7 7 7 7 7 7 7 6 6 5 5 5 4 4 4 4 4 4 4 4 5 5 5 5 4 4 4 5 4 4 3 3 3 4 4 5 5 5 6 5 5 6 7
8 8 8 8 8 8 8 7 7 6 5 5 4 4 4 4 4 4 4 5 5 5 5 6 5 5 5 5 4 4 4 4 4 4 4 5 5 5 6 6 5 6 6
8 8 8 8 8 8 8 8 8 7 6 5 5 5 4 5 5 5 4 5 5 5 5 5 5 5 5 5 4 5 4 4 5 5 5 5 6 6 6 6 6 6 6
8 8 9 9 9 9 9 8 8 7 7 6 6 5 5 5 5 5 5 5 5 6 5 5 5 5 5 5 5 5 5 5 6 6 6 6 6 7 6 7 6 6 7
8 9 9 9 9 9 9 9 9 8 8 7 6 6 6 5 5 6 6 6 6 6 6 6 6 6 6 6 6 6 6 6 6 6 6 7 7 7 7 6 6 7 7
9 10 9 9 9 9 9 9 9 9 8 7 7 7 6 6 6 6 6 6 7 7 7 7 7 8 7 6 6 6 6 6 6 7 7 7 8 7 7 7 7 7 7
10 10 10 10 10 9 9 9 9 9 8 8 7 7 7 7 7 7 7 7 7 7 7 7 8 8 8 8 7 7 8 7 7 6 6 6 7 7 7 7 8 7 7
11 11 11 11 10 10 10 10 10 10 9 9 8 8 8 7 7 7 7 7 7 7 7 8 8 8 8 8 8 8 8 8 8 8 8 7 8 8 8 8 8 8 7
13 12 12 11 11 10 10 11 10 10 10 9 10 9 9 8 8 8 8 8 8 8 8 8 9 9 9 10 9 9 9 8 8 8 9 9 9 9 10 10 10 9 9
14 13 13 12 11 11 10 11 11 10 10 10 10 10 9 8 9 9 9 9 9 9 9 9 9 9 10 10 10 10 9 9 9 8 9 9 10 10 11 11 11 11 10
14 14 14 12 12 11 11 11 10 10 10 10 10 10 9 9 9 9 9 10 10 10 10 10 10 10 11 11 11 10 10 10 11 10 10 10 11 11 10 10 10 11 11
15 15 14 12 12 12 11 11 11 10 10 9 9 9 9 9 10 9 9 10 10 10 10 11 10 10 11 11 12 11 11 11 12 11 11 11 12 12 12 11 11 12 12
15 15 13 13 13 12 11 10 10 9 10 9 9 8 8 9 10 9 9 9 10 10 11 11 11 11 11 11 12 12 12 12 12 13 12 11 12 13 13 13 13 12 12
15 14 14 13 12 11 11 10 10 10 10 9 8 8 9 9 10 9 9 10 10 11 11 12 12 12 12 12 13 13 13 13 13 13 12 12 13 14 14 14 14 13 13
14 14 14 13 12 12 11 11 10 10 10 9 9 9 9 9 10 10 10 10 11 12 12 12 12 13 13 13 13 14 14 14 14 15 14 14 15 15 16 15 15 15 15
14 14 14 13 13 13 12 11 11 11 11 10 11 10 10 9 9 10 11 12 12 12 12 12 13 13 14 14 15 14 14 14 15 15 15 15 15 16 16 16 17 17 17
14 14 13 13 14 14 13 12 12 12 12 11 11 11 11 10 11 11 11 11 12 12 13 13 13 14 14 15 16 16 15 15 15 15 16 16 17 17 17 17 17 18 18
14 14 14 14 14 14 13 12 13 13 12 11 12 11 11 11 11 12 12 12 12 13 13 13 13 14 15 16 16 17 17 17 17 17 17 17 17 17 18 18 18 18 18
14 14 14 14 14 14 13 12 13 13 12 12 13 12 12 12 13 13 13 13 13 13 13 13 14 14 15 16 16 18 18 18 18 18 17 17 18 19 19 20 20 19 20
14 14 14 14 14 13 13 13 13 13 13 13 14 13 13 14 14 14 13 13 13 13 13 13 14 15 15 16 17 17 19 19 19 19 19 19 19 18 20 21 21 21 20
14 14 15 15 14 13 13 14 14 14 14 14 14 14 14 15 15 14 13 13 13 13 14 14 15 15 16 17 17 17 18 19 20 19 19 19 19 19 20 21 21 21 21
13 14 14 14 14 14 14 14 14 14 14 14 14 14 15 15 15 14 13 13 14 14 14 15 16 17 17 17 18 18 18 18 19 19 19 19 20 21 20 21 21 22 22
14 14 14 14 14 14 14 14 14 14 14 14 14 15 16 16 15 15 15 14 15 15 15 16 16 16 17 17 18 18 19 19 19 19 19 20 20 21 21 22 22 22 23
15 15 14 14 14 15 15 15 14 15 14 14 15 16 17 16 17 17 17 16 16 16 16 16 17 17 17 18 18 19 19 19 19 19 20 21 21 21 21 21 21 22 24
15 16 15 14 15 15 15 15 15 15 15 15 16 17 17 17 17 17 17 17 17 17 18 17 17 18 18 18 19 19 20 20 20 20 20 21 21 21 22 22 21 22 23
Wind_Direction
329 328 329 328 325 327 324 321 320 311 316 314 306 289 277 268 259 247 229 221 221 217 214 211 207 218 220 210 213 215 218 222 201 206 202 200 199 194 195 198 200 202 204
326 326 327 326 325 324 322 321 323 317 312 304 297 287 276 268 263 258 243 231 227 229 228 224 214 225 231 229 231 234 227 213 210 217 210 206 205 208 211 214 212 208 205
323 324 322 323 323 322 322 320 318 314 308 300 288 285 279 276 266 259 247 240 234 230 233 227 219 231 240 236 233 236 226 219 223 226 212 211 217 211 210 209 207 210 209
319 320 317 318 321 320 320 317 314 311 303 297 285 277 279 281 276 264 256 252 248 238 236 233 234 239 244 244 247 244 235 238 238 237 224 222 224 224 220 217 215 216 220
315 315 313 314 315 315 314 310 310 308 299 294 289 280 278 280 277 267 264 258 250 242 237 236 236 239 247 253 258 256 242 236 235 231 232 240 233 231 230 222 222 221 231
315 312 310 312 312 309 310 309 306 308 300 294 289 280 275 275 272 269 267 256 248 240 239 239 237 237 245 251 257 260 255 239 233 234 237 241 239 238 235 230 227 223 231
314 312 309 312 309 305 305 308 307 308 301 296 289 282 280 279 275 277 268 254 245 241 240 241 242 239 237 242 254 258 259 252 241 240 242 238 235 235 233 229 230 232 234
313 309 310 310 307 302 302 305 307 304 299 294 291 284 279 277 275 277 272 256 252 246 243 245 247 246 247 251 257 262 261 257 249 243 240 234 236 238 236 234 231 230 235
310 309 307 309 304 300 301 304 304 301 298 295 290 284 278 273 274 271 263 260 258 256 254 248 244 245 246 248 252 256 259 256 250 242 237 236 237 239 241 239 232 228 233
308 309 307 305 302 299 299 300 298 300 298 294 290 284 276 274 269 266 263 261 259 258 257 254 248 246 244 247 254 256 257 256 251 244 241 242 246 243 244 242 236 233 234
306 306 305 302 301 300 297 296 294 296 297 294 290 284 276 273 269 266 264 264 261 258 258 256 252 251 247 248 251 253 255 258 256 250 250 248 248 243 243 241 242 240 238
304 305 303 302 301 300 297 294 294 294 296 293 289 283 279 271 269 269 266 267 264 260 259 259 257 255 253 250 250 251 252 253 256 254 255 252 248 246 248 246 246 248 248
304 303 303 301 301 298 296 294 294 293 295 294 291 285 282 277 274 272 269 267 264 262 260 262 261 256 254 254 255 255 253 254 258 257 256 253 251 252 252 249 246 246 249
305 302 300 297 297 297 296 293 292 293 296 299 298 294 291 283 279 276 271 274 268 267 266 263 262 260 257 255 258 257 256 256 257 259 259 253 252 254 256 254 250 252 251
303 301 298 295 296 295 293 292 290 291 296 298 300 301 302 289 281 276 278 280 275 271 270 268 265 263 261 261 261 260 259 258 259 262 260 259 260 259 258 258 255 256 256
300 299 295 295 295 293 288 288 289 289 293 292 291 297 301 296 287 281 279 278 278 275 272 271 267 265 265 265 263 261 260 258 260 261 261 262 262 263 263 263 261 260 260
300 300 295 292 295 291 288 290 292 291 288 289 288 293 298 295 293 288 282 282 278 277 274 273 269 265 266 266 265 264 262 260 260 259 258 259 261 262 265 264 263 262 261
300 300 300 295 292 290 289 287 289 289 290 288 288 292 296 296 295 293 292 289 284 281 277 274 272 268 266 268 268 264 264 262 263 263 261 261 263 265 266 265 266 265 263
299 299 302 299 294 292 289 289 290 291 291 288 293 294 297 300 301 298 295 290 286 283 279 275 272 269 268 270 271 267 265 265 263 263 263 263 262 265 266 268 267 266 267
297 297 299 299 298 294 293 292 293 294 293 291 294 297 297 299 302 302 297 291 287 281 278 276 273 273 273 273 273 268 267 268 264 263 265 264 263 265 266 267 266 265 265
293 296 296 299 298 293 292 293 294 293 290 291 290 292 295 298 300 299 295 291 287 283 280 279 277 277 277 276 274 272 269 271 269 266 266 265 264 265 266 267 267 266 266
293 295 296 297 295 293 292 293 294 295 292 290 289 292 296 295 296 295 292 288 286 283 281 279 278 278 278 277 276 275 273 273 272 270 268 269 266 265 266 265 265 266 266
291 295 297 297 297 298 298 298 297 296 295 291 291 292 293 293 291 292 293 290 286 285 283 281 280 278 277 276 275 273 273 273 272 271 270 268 268 267 266 264 264 265 266
289 292 294 295 298 301 301 301 299 297 296 295 294 292 291 293 291 293 295 292 290 288 288 287 285 282 278 275 274 274 274 274 273 271 269 268 269 270 269 266 264 266 266
288 292 293 293 296 298 297 299 299 297 296 295 294 292 291 293 293 293 294 292 289 289 289 287 284 281 278 276 274 274 275 275 275 272 268 267 268 270 269 267 266 267 268
287 289 291 294 298 297 296 297 298 297 297 296 294 292 291 291 292 292 292 291 290 290 289 287 285 282 279 275 272 272 274 273 272 272 269 267 269 270 271 270 271 271 270
Height
5879 5878 5878 5877 5876 5876 5875 5874 5873 5872 5872 5871 5871 5870 5870 5870 5870 5870 5870 5870 5871 5871 5872 5872 5873 5873 5873 5873 5874 5874 5875 5875 5876 5876 5877 5878 5878 5880 5880 5881 5882 5883 5884
5879 5878 5877 5877 5876 5875 5875 5874 5873 5872 5872 5871 5870 5870 5870 5869 5869 5869 5870 5870 5870 5871 5871 5872 5872 5873 5873 5873 5874 5874 5875 5875 5876 5876 5877 5877 5878 5880 5880 5881 5882 5883 5884
5879 5878 5877 5876 5876 5875 5874 5874 5873 5872 5871 5870 5870 5870 5869 5869 5869 5869 5869 5869 5869 5870 5870 5871 5871 5872 5872 5873 5873 5874 5874 5875 5875 5875 5876 5877 5878 5879 5880 5881 5882 5883 5884
5878 5877 5876 5876 5875 5874 5874 5873 5872 5872 5871 5870 5869 5869 5869 5869 5868 5869 5869 5869 5869 5869 5870 5870 5871 5872 5872 5873 5873 5874 5874 5874 5874 5875 5875 5877 5878 5878 5879 5880 5881 5883 5884
5877 5877 5876 5875 5874 5873 5873 5872 5872 5871 5870 5870 5869 5869 5868 5868 5868 5868 5868 5868 5868 5869 5869 5870 5870 5871 5871 5872 5872 5873 5873 5873 5874 5874 5875 5876 5877 5878 5879 5879 5881 5882 5883
5876 5875 5874 5874 5873 5872 5872 5871 5870 5870 5869 5869 5869 5868 5868 5867 5867 5867 5867 5867 5867 5868 5868 5869 5869 5870 5870 5871 5872 5872 5872 5873 5873 5874 5875 5875 5876 5877 5878 5879 5880 5881 5882
5875 5874 5873 5872 5872 5871 5870 5870 5869 5869 5868 5868 5868 5867 5867 5866 5866 5866 5866 5866 5866 5866 5867 5868 5868 5869 5869 5870 5871 5871 5871 5872 5873 5873 5874 5875 5876 5877 5878 5879 5880 5880 5881
5874 5873 5872 5871 5870 5869 5869 5868 5868 5867 5867 5867 5866 5866 5866 5865 5865 5865 5865 5865 5865 5865 5866 5866 5867 5868 5868 5869 5870 5870 5870 5871 5872 5873 5873 5874 5875 5876 5877 5877 5879 5879 5880
5872 5871 5870 5869 5869 5868 5867 5867 5867 5866 5865 5865 5865 5864 5864 5864 5864 5864 5864 5863 5864 5864 5864 5865 5865 5866 5867 5867 5868 5869 5869 5870 5870 5871 5872 5873 5874 5875 5875 5876 5877 5878 5879
5870 5869 5869 5868 5867 5866 5866 5865 5865 5864 5864 5863 5863 5863 5862 5862 5862 5862 5862 5862 5862 5862 5863 5863 5864 5864 5865 5866 5866 5867 5868 5868 5869 5869 5870 5871 5872 5873 5874 5875 5876 5877 5878
5869 5868 5867 5866 5865 5865 5864 5864 5863 5862 5862 5861 5861 5860 5860 5860 5860 5860 5860 5860 5860 5861 5861 5861 5862 5863 5863 5864 5865 5865 5866 5867 5868 5868 5868 5869 5870 5871 5872 5873 5874 5875 5876
5867 5866 5865 5864 5864 5863 5862 5862 5861 5861 5860 5859 5859 5858 5858 5858 5858 5858 5858 5858 5858 5859 5859 5859 5860 5860 5861 5862 5863 5864 5865 5865 5866 5867 5867 5867 5868 5870 5870 5871 5872 5873 5874
5865 5864 5863 5861 5861 5861 5861 5860 5859 5859 5858 5857 5857 5856 5856 5856 5856 5856 5856 5856 5856 5856 5857 5857 5858 5858 5859 5860 5861 5862 5863 5863 5864 5865 5866 5866 5867 5868 5869 5869 5870 5871 5872
5862 5861 5861 5860 5859 5859 5858 5858 5857 5857 5856 5856 5855 5854 5854 5854 5854 5854 5854 5854 5854 5854 5854 5855 5856 5856 5857 5858 5858 5859 5860 5862 5862 5862 5863 5864 5864 5865 5866 5867 5868 5869 5870
5861 5860 5859 5858 5857 5857 5856 5856 5855 5855 5854 5854 5853 5853 5853 5852 5852 5852 5851 5851 5851 5851 5852 5852 5853 5854 5855 5855 5856 5857 5858 5859 5860 5860 5860 5861 5862 5863 5864 5865 5866 5866 5867
5858 5857 5856 5856 5855 5855 5855 5854 5854 5853 5852 5852 5852 5851 5851 5850 5850 5850 5849 5849 5849 5849 5849 5849 5850 5851 5852 5853 5853 5854 5855 5856 5857 5858 5858 5859 5860 5860 5861 5862 5863 5864 5864
5856 5855 5854 5854 5853 5853 5852 5852 5852 5851 5851 5850 5849 5849 5849 5848 5848 5847 5847 5847 5846 5846 5846 5846 5847 5848 5849 5850 5850 5851 5852 5853 5853 5854 5855 5856 5856 5857 5857 5858 5859 5860 5861
5854 5853 5853 5852 5851 5851 5851 5850 5850 5849 5848 5848 5847 5847 5847 5846 5845 5845 5844 5844 5844 5843 5843 5843 5844 5845 5846 5846 5847 5847 5848 5849 5849 5849 5851 5852 5853 5853 5854 5854 5855 5856 5857
5852 5851 5851 5850 5849 5849 5848 5848 5848 5847 5846 5846 5845 5845 5844 5844 5843 5842 5842 5841 5841 5841 5840 5841 5841 5841 5842 5843 5843 5843 5844 5845 5845 5846 5847 5848 5848 5849 5850 5850 5851 5851 5852
5850 5849 5849 5848 5847 5846 5846 5846 5845 5845 5844 5844 5843 5843 5842 5841 5841 5840 5839 5839 5838 5838 5838 5838 5838 5838 5839 5839 5839 5839 5840 5840 5841 5842 5843 5843 5844 5844 5845 5845 5846 5847 5847
5849 5848 5847 5846 5845 5844 5844 5844 5843 5842 5842 5841 5841 5840 5839 5839 5838 5837 5836 5836 5835 5835 5834 5834 5835 5835 5835 5835 5835 5835 5836 5836 5837 5838 5838 5839 5839 5840 5840 5840 5841 5842 5843
5846 5846 5845 5844 5843 5842 5842 5841 5840 5839 5839 5838 5838 5837 5836 5836 5835 5834 5833 5832 5832 5831 5831 5831 5831 5831 5831 5831 5831 5831 5831 5832 5832 5833 5833 5834 5835 5835 5836 5836 5836 5837 5838
5844 5844 5843 5841 5840 5839 5839 5838 5837 5836 5836 5835 5834 5834 5833 5832 5832 5831 5830 5829 5828 5828 5827 5827 5826 5826 5826 5826 5826 5827 5827 5828 5828 5828 5829 5829 5830 5830 5831 5831 5831 5832 5832
5842 5841 5840 5839 5838 5837 5836 5835 5834 5833 5832 5832 5831 5830 5830 5829 5828 5827 5826 5825 5825 5824 5823 5823 5822 5822 5822 5822 5822 5822 5822 5823 5823 5824 5824 5824 5825 5825 5825 5826 5826 5826 5827
5839 5838 5838 5837 5836 5835 5834 5832 5831 5830 5829 5828 5827 5827 5826 5825 5824 5823 5822 5821 5820 5820 5819 5818 5818 5817 5817 5817 5817 5817 5817 5817 5817 5818 5819 5819 5819 5819 5820 5820 5820 5821 5821
5836 5835 5835 5834 5833 5832 5831 5829 5828 5826 5825 5824 5823 5822 5821 5821 5820 5819 5818 5817 5816 5815 5814 5814 5813 5813 5812 5812 5812 5812 5812 5812 5812 5812 5813 5813 5814 5814 5814 5814 5815 5815 5815